Dewpoint
62 62 62 61 61 60 61 61 60 60 60 59 60 60 60 59 58 55 53 54 55 55 56 55 58 63 64 66 66 65 64 63 63 63 63 63 62 56 54 54 56 56 55 56 55 56 56 56 57 59 60 59 59 59 58 57 55 54 55 58 58 58 55 54 54 55 57 56 56 55 55 56 56 55
59 61 62 62 60 61 61 60 61 61 60 60 61 59 59 60 58 57 55 55 56 57 58 58 56 59 62 64 65 65 64 61 62 63 62 62 62 57 54 53 53 54 54 54 52 53 54 56 58 60 61 59 58 58 57 56 55 55 57 59 58 57 55 55 56 57 57 56 56 55 55 56 55 55
58 58 59 60 60 61 61 61 60 61 60 60 61 60 60 61 60 60 59 57 57 58 57 58 58 58 61 63 64 65 63 62 61 62 63 62 59 57 55 53 53 54 54 53 53 54 54 54 56 58 59 59 58 57 57 58 57 57 58 56 56 56 56 55 56 57 58 57 57 56 56 56 56 57
57 57 58 58 59 60 60 60 60 59 62 62 62 61 61 60 60 62 60 58 56 58 59 58 57 58 62 64 64 66 64 63 59 63 64 63 58 60 60 53 53 53 53 53 55 57 56 54 55 57 59 59 59 58 58 59 58 57 55 54 54 55 55 55 56 58 58 58 59 57 56 57 57 57
56 56 56 56 57 58 58 58 59 59 60 61 62 61 61 60 60 60 60 59 58 59 61 60 59 59 61 61 63 64 63 64 62 61 63 63 63 62 61 58 53 52 52 52 52 53 53 54 57 58 59 60 60 57 56 56 54 55 55 53 52 52 54 55 54 56 57 58 57 56 56 56 55 55
54 55 55 55 56 57 56 56 56 57 59 60 61 61 60 60 60 62 60 60 59 58 59 59 60 59 61 60 60 61 62 63 63 61 62 62 62 62 62 61 59 52 52 52 51 51 52 52 54 55 55 55 56 55 53 54 52 54 53 50 50 53 54 55 54 54 56 57 56 55 55 55 55 55
52 53 54 55 56 58 58 58 59 59 60 60 61 62 62 61 60 61 61 61 59 58 59 60 58 58 60 62 60 61 62 62 64 61 61 62 62 62 62 61 61 52 51 51 51 51 51 52 52 53 54 54 54 53 52 52 51 51 51 49 50 52 52 52 52 52 56 57 56 55 55 53 54 55
52 52 53 55 56 56 56 57 58 59 59 59 60 62 61 61 60 59 62 62 60 59 58 59 57 58 59 61 61 64 65 65 63 63 62 62 62 62 62 62 62 56 51 51 51 51 51 52 52 52 53 53 53 52 52 51 51 50 50 49 50 50 50 50 50 50 54 55 55 55 53 52 53 54
51 51 52 52 53 54 55 56 57 59 60 59 60 59 59 58 59 60 59 59 60 58 58 59 59 59 59 60 63 64 64 64 64 65 63 61 62 62 62 62 62 57 51 51 51 51 51 51 51 52 52 53 52 52 51 51 50 50 50 49 49 50 49 49 49 50 51 51 51 54 53 51 53 53
52 52 52 52 53 54 55 56 57 57 58 58 59 60 60 60 61 62 61 61 60 60 59 62 58 60 59 59 60 61 64 61 62 61 63 62 62 62 62 62 62 61 58 55 55 52 51 51 51 51 52 52 52 52 51 50 50 50 49 49 49 49 49 48 49 49 49 49 48 49 50 49 51 51
51 51 51 52 53 53 54 53 53 54 55 56 57 58 59 58 59 59 59 59 60 61 60 59 59 58 60 60 60 63 63 64 63 62 61 61 62 62 62 61 62 63 60 56 53 55 55 54 53 51 52 52 52 52 51 50 50 50 49 49 48 49 48 48 49 49 48 47 46 46 45 47 50 49
49 50 50 51 52 52 51 51 51 51 51 52 54 56 57 57 57 57 57 58 59 59 59 58 58 60 60 61 62 62 64 62 62 62 61 59 60 61 61 61 61 61 59 58 57 54 53 54 53 51 51 52 51 51 51 51 51 50 49 48 48 48 48 48 48 48 47 46 45 44 44 44 45 48
49 49 49 49 50 50 51 49 48 48 48 51 53 54 55 56 57 57 57 57 56 56 57 58 58 59 58 59 60 61 60 59 59 61 62 60 61 61 60 61 63 61 59 59 58 56 56 57 57 57 57 57 53 52 52 52 51 50 48 48 48 48 48 48 48 47 46 45 44 43 44 44 44 45
48 48 49 50 50 49 48 47 45 43 44 47 51 52 53 53 53 54 55 55 56 56 56 56 56 57 56 58 60 60 60 61 61 62 62 60 62 61 60 60 62 63 61 59 57 57 58 58 57 58 57 58 56 57 55 56 53 50 48 48 48 48 48 48 47 46 44 43 43 43 43 44 45 46
48 48 47 48 48 47 47 46 43 43 43 44 45 45 47 48 50 50 51 51 52 52 53 54 55 57 57 59 60 61 61 61 61 60 61 61 61 59 58 57 60 63 61 59 57 57 58 58 57 58 59 58 57 58 57 52 50 49 48 47 48 48 48 47 46 44 43 43 43 43 43 45 46 45
46 46 47 47 47 46 46 45 45 45 45 45 45 46 44 43 42 43 48 48 49 50 50 51 52 53 54 56 58 59 61 61 60 60 60 61 60 59 58 58 57 60 61 58 57 56 58 59 58 58 59 60 58 58 55 50 49 48 48 48 47 47 47 46 45 43 43 43 44 44 45 45 44 43
45 45 45 46 46 46 47 46 44 45 47 47 46 47 47 44 43 42 42 42 48 49 50 50 51 52 52 52 54 55 56 59 60 59 60 60 59 59 58 59 59 58 60 58 57 56 57 58 57 57 58 59 58 58 52 50 49 48 47 47 47 47 46 45 44 44 44 44 44 44 44 43 42 42
44 44 43 44 44 45 45 44 43 44 46 49 49 50 49 49 48 45 43 42 42 45 48 49 49 49 49 50 50 51 53 53 55 59 59 59 59 58 58 60 60 59 59 58 57 56 56 57 56 56 58 59 59 59 54 49 48 47 47 47 46 46 45 45 44 44 44 44 43 43 42 42 41 41
44 43 43 44 44 43 44 42 40 42 44 47 48 48 48 48 47 48 48 47 47 46 46 46 46 46 47 47 47 48 49 51 54 57 59 59 59 60 60 60 61 59 59 59 58 55 56 57 56 56 57 58 58 57 49 48 47 47 47 46 46 45 45 44 44 43 43 43 42 42 41 41 41 40
43 42 43 42 42 42 42 40 38 39 42 45 44 45 46 46 46 46 46 43 44 47 47 46 46 46 47 42 46 46 45 48 52 55 58 59 59 59 58 57 56 56 57 59 57 55 55 57 55 52 53 54 54 53 52 47 47 47 46 45 45 44 44 43 43 42 42 42 42 41 41 40 40 40
43 42 41 41 40 41 40 38 36 37 40 45 44 44 45 45 45 45 45 42 42 41 41 41 40 40 40 41 41 41 42 44 47 53 56 57 58 57 56 55 55 55 55 58 58 56 52 53 49 46 47 46 46 47 47 48 46 45 45 44 43 43 42 42 42 42 42 41 41 41 40 40 40 40
42 41 42 42 39 39 39 37 36 37 41 44 44 44 44 44 44 45 44 44 45 41 41 41 40 40 40 41 42 42 42 42 46 51 52 56 57 56 55 54 54 56 56 56 57 53 50 48 47 44 45 43 44 44 45 45 45 44 43 43 42 42 42 42 42 42 42 41 41 41 41 40 41 43
40 40 40 42 39 39 38 36 36 36 39 44 43 43 43 43 43 44 45 43 43 44 44 44 45 44 44 46 46 46 43 43 46 49 49 52 55 55 55 55 54 52 51 50 53 48 46 46 47 46 42 40 42 44 44 44 44 44 45 44 44 42 42 41 41 41 41 41 41 41 41 41 41 41
39 39 39 39 36 36 36 36 36 36 37 41 42 42 42 41 42 43 44 43 43 43 43 43 44 44 44 45 45 46 46 46 47 47 48 49 52 54 56 55 53 52 51 51 51 47 47 48 46 46 45 40 38 41 44 44 44 44 44 43 43 41 41 41 41 41 41 41 41 41 41 40 40 41
38 37 37 38 37 35 36 36 36 36 36 38 41 41 40 41 42 41 43 43 42 43 43 43 42 42 42 43 43 43 44 44 45 47 47 49 51 53 55 55 53 51 51 51 46 48 46 45 43 44 42 42 41 41 42 43 43 43 43 43 43 43 43 42 41 41 40 40 40 40 40 40 40 40
37 37 36 37 36 35 35 36 36 36 36 37 39 41 36 36 36 42 42 42 42 41 41 41 40 41 40 40 41 42 43 43 45 46 46 48 50 50 52 54 54 51 49 50 44 49 46 43 43 42 42 41 40 41 40 41 43 43 44 44 43 43 43 42 42 42 42 41 41 40 41 40 41 40
35 36 37 36 36 34 35 35 36 36 36 38 39 36 35 35 36 38 41 40 41 40 40 41 40 40 41 41 41 41 42 43 44 45 46 47 48 49 49 50 53 52 51 50 51 49 47 45 44 42 41 41 39 39 39 38 40 43 42 43 43 43 44 44 44 44 44 43 41 39 39 39 39 39
33 34 35 35 34 34 34 35 36 35 36 40 35 35 35 35 36 37 37 37 39 39 38 39 39 40 40 40 40 41 41 42 43 44 45 46 46 47 48 48 48 49 50 50 51 51 48 45 45 44 42 40 38 36 36 39 40 41 40 43 43 44 44 44 44 43 43 44 44 44 43 42 43 43
33 34 34 33 34 33 33 34 33 33 34 34 35 36 35 37 37 37 35 36 37 37 37 38 39 39 39 40 40 41 41 41 42 43 44 45 46 47 47 47 46 47 47 48 48 48 47 46 44 44 43 41 39 38 38 38 40 40 41 40 40 43 44 45 45 44 45 46 46 46 45 45 45 45
33 33 33 32 32 32 33 34 34 33 35 33 34 36 37 37 36 35 35 35 35 35 36 37 38 38 39 39 40 40 40 40 40 41 42 43 44 45 45 44 45 46 46 46 46 46 46 45 44 43 42 41 41 39 39 38 37 39 39 39 40 42 43 44 44 44 44 45 45 45 46 46 46 46
33 32 31 31 32 32 32 32 32 31 31 32 33 32 34 35 33 34 36 36 35 34 35 35 37 38 38 39 39 38 39 39 39 40 40 41 42 43 43 42 42 43 45 45 46 46 45 45 44 43 40 40 40 39 39 38 36 36 38 39 39 36 41 43 44 44 44 44 44 45 45 45 45 47
33 33 31 31 30 31 32 31 31 29 31 29 30 31 32 32 33 33 35 35 35 34 34 34 36 37 38 37 38 38 38 38 39 39 39 40 41 42 42 41 40 42 42 43 44 44 42 45 44 43 42 40 38 39 39 38 36 36 36 38 39 41 42 42 42 43 45 44 44 43 44 45 45 45
33 31 29 28 28 28 28 28 29 29 29 29 30 33 32 33 32 33 31 33 34 33 33 34 34 34 36 36 37 37 38 38 38 39 39 40 40 40 41 40 41 40 40 40 40 41 42 42 42 42 42 42 41 39 37 35 36 37 36 37 39 40 41 43 43 44 44 44 42 42 42 43 44 45
30 30 29 29 28 28 28 28 27 27 28 28 27 28 30 30 30 33 32 31 33 34 34 32 33 33 34 34 35 36 36 37 37 38 38 40 40 39 38 38 38 39 38 38 39 39 39 39 39 39 39 39 40 40 39 36 35 37 38 39 40 40 42 44 44 43 44 43 42 41 41 42 44 45
29 27 26 27 27 27 29 28 26 26 27 26 28 26 27 28 29 30 32 33 33 31 33 33 33 33 33 34 33 34 35 36 37 37 38 38 39 39 38 36 36 37 37 37 37 38 38 37 37 36 36 37 36 38 39 41 38 38 40 41 41 41 41 43 43 43 43 43 43 39 40 41 41 44
26 27 26 27 27 28 27 28 28 26 26 26 25 27 27 26 28 28 29 31 32 31 31 32 31 31 31 31 32 33 33 33 35 36 37 38 38 38 38 38 38 38 39 38 38 39 39 39 38 37 34 34 33 32 33 38 40 41 38 38 40 40 41 41 43 42 42 42 42 40 35 37 40 38
25 27 28 25 26 27 27 27 28 27 27 26 25 25 25 25 26 29 30 32 29 30 30 31 31 30 29 30 29 31 32 33 33 34 35 35 37 37 37 36 36 39 39 40 41 40 41 40 40 39 36 32 31 31 32 35 38 40 42 39 37 40 39 40 41 39 41 39 39 38 37 37 37 37
26 26 25 25 24 25 27 27 27 27 27 26 26 25 25 26 26 27 28 26 26 27 29 30 28 28 27 26 29 30 31 32 33 33 32 34 35 36 37 38 38 39 39 41 42 42 43 42 41 40 38 32 32 32 32 34 35 38 39 41 36 37 40 38 35 35 37 38 38 39 38 36 36 36
25 25 26 24 24 24 25 26 26 28 29 28 28 27 25 25 25 25 26 26 26 25 27 28 27 26 27 27 25 26 28 29 30 31 32 33 33 33 34 35 36 39 39 39 42 42 42 42 41 41 41 36 33 34 34 33 33 35 36 37 39 37 36 36 34 35 35 35 37 38 37 36 35 34
27 24 24 23 24 25 24 27 27 27 27 28 27 26 26 25 26 25 26 27 26 27 27 26 27 27 26 26 25 26 27 30 30 31 33 32 32 32 32 33 34 34 34 34 34 35 36 38 39 40 40 39 37 35 34 34 34 34 35 38 36 39 34 34 32 32 32 34 35 34 33 35 32 33
24 24 24 23 24 24 24 23 24 26 26 26 27 27 25 25 25 26 25 26 27 25 23 25 26 28 26 27 25 24 24 25 27 28 30 30 29 30 30 30 30 32 31 31 32 33 34 36 36 34 37 36 37 37 33 32 32 32 32 32 36 36 35 34 34 32 31 34 33 31 31 30 29 29
24 24 24 25 23 24 23 23 25 22 23 21 22 27 25 26 25 28 25 27 28 27 23 22 23 22 22 22 22 23 24 24 24 26 28 29 28 29 30 29 29 29 29 29 30 32 34 36 36 37 37 35 33 30 30 30 30 29 29 30 31 34 35 35 34 35 38 32 30 27 26 24 23 25
24 24 23 23 23 24 22 25 21 21 21 20 20 21 21 23 25 23 22 24 23 23 22 21 21 21 21 21 21 22 22 23 24 24 26 26 28 28 28 28 29 30 29 29 30 32 32 33 33 32 31 27 25 26 27 28 28 27 27 27 28 28 30 34 34 34 33 33 34 34 29 23 20 19
25 25 24 24 23 24 24 22 20 21 22 26 21 19 17 17 20 22 23 22 22 22 22 22 21 21 21 21 21 21 20 20 22 22 23 23 24 24 26 27 27 28 26 26 26 27 27 28 30 26 22 22 24 24 26 27 25 24 23 23 24 25 25 27 29 31 31 32 33 33 33 32 32 32
25 26 25 25 24 25 24 24 25 22 22 21 20 19 17 16 17 19 24 24 23 22 23 22 22 21 21 21 20 21 21 24 22 21 20 21 21 22 23 23 23 24 24 24 24 25 25 25 24 23 21 21 22 23 24 24 22 23 22 23 23 22 20 21 21 21 22 22 31 32 33 33 34 33